TimeCST,TemperatureF,Dew PointF,Humidity,Sea Level PressureIn,VisibilityMPH,Wind Direction,Wind SpeedMPH,Gust SpeedMPH,PrecipitationIn,Events,Conditions,WindDirDegrees,DateUTC
12:10 AM,42.8,42.8,100,30.04,1.8,Calm,Calm,-,N/A,,Scattered Clouds,0,2012-11-07 06:10:00
12:25 AM,42.8,42.8,100,30.03,0.8,Calm,Calm,-,N/A,,Clear,0,2012-11-07 06:25:00
12:33 AM,42.8,42.8,100,30.03,0.5,Calm,Calm,-,N/A,Fog,Fog,0,2012-11-07 06:33:00
12:36 AM,42.8,42.8,100,30.03,1.0,Calm,Calm,-,N/A,,Clear,0,2012-11-07 06:36:00
12:39 AM,42.8,42.8,100,30.03,2.0,Calm,Calm,-,N/A,,Clear,0,2012-11-07 06:39:00
12:47 AM,42.8,41.0,93,30.03,4.0,West,3.5,-,N/A,,Clear,270,2012-11-07 06:47:00
12:56 AM,42.1,41.0,96,30.07,5.0,Calm,Calm,-,N/A,,Mostly Cloudy,0,2012-11-07 06:56:00
1:56 AM,42.1,41.0,96,30.05,4.0,Calm,Calm,-,N/A,,Scattered Clouds,0,2012-11-07 07:56:00
2:56 AM,43.0,41.0,93,30.05,4.0,Calm,Calm,-,N/A,,Clear,0,2012-11-07 08:56:00
3:56 AM,42.1,41.0,96,30.05,3.0,WSW,3.5,-,N/A,,Clear,250,2012-11-07 09:56:00
4:11 AM,42.8,39.2,87,30.03,1.5,Calm,Calm,-,N/A,,Clear,0,2012-11-07 10:11:00
4:23 AM,41.0,39.2,93,30.03,4.0,Calm,Calm,-,N/A,,Clear,0,2012-11-07 10:23:00
4:56 AM,41.0,39.9,96,30.06,4.0,Calm,Calm,-,N/A,,Mostly Cloudy,0,2012-11-07 10:56:00
5:18 AM,42.8,41.0,93,30.03,4.0,West,3.5,-,N/A,,Overcast,280,2012-11-07 11:18:00
5:56 AM,42.1,39.9,92,30.06,3.0,West,3.5,-,N/A,,Scattered Clouds,270,2012-11-07 11:56:00
6:00 AM,42.8,39.2,87,30.06,3.0,West,3.5,-,N/A,,Partly Cloudy,270,2012-11-07 12:00:00
6:31 AM,41.0,39.2,93,30.03,2.0,West,3.5,-,N/A,,Partly Cloudy,260,2012-11-07 12:31:00
6:53 AM,41.0,39.2,93,30.04,3.0,West,3.5,-,N/A,,Clear,260,2012-11-07 12:53:00
6:56 AM,41.0,39.9,96,30.08,3.0,West,3.5,-,N/A,,Clear,260,2012-11-07 12:56:00
7:56 AM,46.0,43.0,89,30.10,7.0,West,4.6,-,N/A,,Clear,270,2012-11-07 13:56:00
8:56 AM,52.0,45.0,77,30.09,10.0,West,5.8,-,N/A,,Clear,280,2012-11-07 14:56:00
9:56 AM,57.0,43.0,59,30.09,10.0,WNW,9.2,-,N/A,,Clear,300,2012-11-07 15:56:00
10:56 AM,60.1,37.0,42,30.07,10.0,NW,11.5,21.9,N/A,,Partly Cloudy,320,2012-11-07 16:56:00
11:56 AM,61.0,37.0,41,30.04,10.0,NW,16.1,21.9,N/A,,Scattered Clouds,310,2012-11-07 17:56:00
12:56 PM,63.0,35.1,35,30.02,10.0,NW,15.0,24.2,N/A,,Mostly Cloudy,320,2012-11-07 18:56:00
1:56 PM,61.0,34.0,36,30.02,10.0,NNW,16.1,25.3,N/A,,Mostly Cloudy,330,2012-11-07 19:56:00
2:56 PM,62.1,34.0,35,30.03,10.0,NW,17.3,25.3,N/A,,Mostly Cloudy,310,2012-11-07 20:56:00
3:56 PM,57.0,37.0,47,30.06,10.0,North,8.1,-,N/A,,Overcast,10,2012-11-07 21:56:00
4:56 PM,55.0,36.0,49,30.10,10.0,North,9.2,19.6,N/A,,Overcast,360,2012-11-07 22:56:00
5:56 PM,52.0,36.0,54,30.12,10.0,NNW,9.2,-,N/A,,Mostly Cloudy,340,2012-11-07 23:56:00
6:56 PM,48.9,36.0,61,30.15,10.0,NNW,4.6,-,N/A,,Mostly Cloudy,330,2012-11-08 00:56:00
7:56 PM,46.0,36.0,68,30.18,10.0,NW,4.6,-,N/A,,Scattered Clouds,320,2012-11-08 01:56:00
8:56 PM,44.1,35.1,71,30.19,10.0,NNW,5.8,-,N/A,,Clear,340,2012-11-08 02:56:00
9:56 PM,42.1,35.1,76,30.19,10.0,Calm,Calm,-,N/A,,Clear,0,2012-11-08 03:56:00
10:56 PM,39.9,36.0,86,30.20,10.0,Calm,Calm,-,N/A,,Clear,0,2012-11-08 04:56:00
11:56 PM,37.9,35.1,89,30.21,10.0,Calm,Calm,-,N/A,,Clear,0,2012-11-08 05:56:00